George Downing

Rides
0 Rides Today
Form
PeriodRunnersWinsPlacesStrikerateProfit
Fortnight1000%-1.00
Season28315415%-109.50
Recent Rides
DateTrackMountPosSPResult
06/02/19WolverhamptonAwa Bomba10/1118/1View
30/01/19WolverhamptonImbucato6/1233/1View
30/01/19LingfieldKath's Boy6/1425/1View
23/01/19KemptonGlobal Style3/920/1View
23/01/19KemptonGracie Stansfield12/1440/1View
09/01/19KemptonClevedon10/1033/1View
09/01/19KemptonGlobal Style11/1216/1View
05/01/19KemptonGracie Stansfield6/1333/1View
04/01/19KemptonAlcanar10/134/1View
12/12/18KemptonBlue Rambler9/106/1View
12/12/18LingfieldDe Vegas Kid3/127/1View
07/12/18KemptonSploosh14/1450/1View
07/12/18KemptonOutrage2/911/2View
07/12/18KemptonSuttonwood Sally12/13100/1View
05/12/18KemptonPapa Delta1/136/4View
01/11/18WolverhamptonOutrage6/105/1View
01/11/18WolverhamptonKing Oswald8/911/1View
31/10/18NottinghamTelekinetic5/6100/1View
30/10/18WolverhamptonCompton Poppy2/106/1View
26/10/18NewburyPoetic Force9/2050/1View
24/10/18ChelmsfordPapa Delta3/107/2View
23/10/18KemptonSploosh14/1425/1View
23/10/18KemptonOutrage2/1011/2View
22/10/18KemptonWilla's Wish8/1216/1View
18/10/18BrightonPoetic Force9/94/1View